Year,Month,Day,Hour,Minute,Value (Times are PST for temperature in C)
2012,10,16,00,00,11.40
2012,10,16,00,01,11.40
2012,10,16,00,02,11.30
2012,10,16,00,03,11.30
2012,10,16,00,04,11.30
2012,10,16,00,05,11.20
2012,10,16,00,06,11.20
2012,10,16,00,07,11.20
2012,10,16,00,08,11.10
2012,10,16,00,09,11.10
2012,10,16,00,10,11.10
2012,10,16,00,11,11.10
2012,10,16,00,12,11.10
2012,10,16,00,13,11.10
2012,10,16,00,14,11.10
2012,10,16,00,15,11.10
2012,10,16,00,16,11.10
2012,10,16,00,17,11.10
2012,10,16,00,18,11.10
2012,10,16,00,19,11.10
2012,10,16,00,20,11.10
2012,10,16,00,21,11.10
2012,10,16,00,22,11.10
2012,10,16,00,23,11.10
2012,10,16,00,24,11.10
2012,10,16,00,25,11.10
2012,10,16,00,26,11.10
2012,10,16,00,27,11.10
2012,10,16,00,28,11.10
2012,10,16,00,29,11.00
2012,10,16,00,30,10.90
2012,10,16,00,31,10.90
2012,10,16,00,32,10.90
2012,10,16,00,33,10.90
2012,10,16,00,34,10.90
2012,10,16,00,35,10.90
2012,10,16,00,36,10.90
2012,10,16,00,37,10.90
2012,10,16,00,38,10.90
2012,10,16,00,39,10.90
2012,10,16,00,40,10.90
2012,10,16,00,41,10.90
2012,10,16,00,42,10.90
2012,10,16,00,43,10.90
2012,10,16,00,44,10.90
2012,10,16,00,45,10.90
2012,10,16,00,46,10.90
2012,10,16,00,47,10.90
2012,10,16,00,48,10.90
2012,10,16,00,49,10.90
2012,10,16,00,50,10.90
2012,10,16,00,51,10.90
2012,10,16,00,52,10.90
2012,10,16,00,53,10.90
2012,10,16,00,54,10.90
2012,10,16,00,55,10.90
2012,10,16,00,56,10.90
2012,10,16,00,57,10.90
2012,10,16,00,58,10.90
2012,10,16,00,59,10.90
2012,10,16,01,00,10.90
2012,10,16,01,01,11.00
2012,10,16,01,02,11.10
2012,10,16,01,03,11.10
2012,10,16,01,04,11.10
2012,10,16,01,05,11.10
2012,10,16,01,06,11.10
2012,10,16,01,07,11.10
2012,10,16,01,08,11.10
2012,10,16,01,09,11.10
2012,10,16,01,10,11.20
2012,10,16,01,11,11.20
2012,10,16,01,12,11.20
2012,10,16,01,13,11.20
2012,10,16,01,14,11.20
2012,10,16,01,15,11.20
2012,10,16,01,16,11.20
2012,10,16,01,17,11.20
2012,10,16,01,18,11.20
2012,10,16,01,19,11.20
2012,10,16,01,20,11.20
2012,10,16,01,21,11.20
2012,10,16,01,22,11.20
2012,10,16,01,23,11.10
2012,10,16,01,24,11.10
2012,10,16,01,25,11.10
2012,10,16,01,26,11.10
2012,10,16,01,27,11.10
2012,10,16,01,28,10.90
2012,10,16,01,29,10.90
2012,10,16,01,30,10.90
2012,10,16,01,31,10.90
2012,10,16,01,32,10.90
2012,10,16,01,33,10.90
2012,10,16,01,34,10.90
2012,10,16,01,35,10.90
2012,10,16,01,36,10.90
2012,10,16,01,37,10.90
2012,10,16,01,38,10.90
2012,10,16,01,39,10.90
2012,10,16,01,40,10.90
2012,10,16,01,41,10.90
2012,10,16,01,42,10.90
2012,10,16,01,43,10.90
2012,10,16,01,44,10.90
2012,10,16,01,45,10.90
2012,10,16,01,46,10.90
2012,10,16,01,47,10.90
2012,10,16,01,48,10.90
2012,10,16,01,49,10.90
2012,10,16,01,50,10.90
2012,10,16,01,51,10.90
2012,10,16,01,52,11.00
2012,10,16,01,53,11.10
2012,10,16,01,54,11.10
2012,10,16,01,55,11.10
2012,10,16,01,56,11.10
2012,10,16,01,57,11.10
2012,10,16,01,58,11.20
2012,10,16,01,59,11.20
2012,10,16,02,00,11.20
2012,10,16,02,01,11.20
2012,10,16,02,02,11.20
2012,10,16,02,03,11.20
2012,10,16,02,04,11.10
2012,10,16,02,05,11.20
2012,10,16,02,06,11.20
2012,10,16,02,07,11.20
2012,10,16,02,08,11.20
2012,10,16,02,09,11.30
2012,10,16,02,10,11.30
2012,10,16,02,11,11.30
2012,10,16,09,13,10.40
2012,10,16,09,14,10.40
2012,10,16,09,15,10.40
2012,10,16,09,16,10.30
2012,10,16,09,17,10.40
2012,10,16,09,18,10.30
2012,10,16,09,19,10.30
2012,10,16,09,20,10.30
2012,10,16,09,21,10.30
2012,10,16,09,22,10.30
2012,10,16,09,23,10.30
2012,10,16,09,24,10.30
2012,10,16,09,25,10.30
2012,10,16,09,26,10.20
2012,10,16,09,27,10.20
2012,10,16,09,28,10.20
2012,10,16,09,29,10.30
2012,10,16,09,30,10.30
2012,10,16,09,31,10.30
2012,10,16,09,32,10.40
2012,10,16,09,33,10.40
2012,10,16,09,34,10.40
2012,10,16,09,35,10.40
2012,10,16,09,36,10.40
2012,10,16,09,37,10.30
2012,10,16,09,38,10.30
2012,10,16,09,39,10.30
2012,10,16,09,40,10.30
2012,10,16,09,41,10.30
2012,10,16,09,42,10.40
2012,10,16,09,43,10.40
2012,10,16,09,44,10.40
2012,10,16,09,45,10.40
2012,10,16,09,46,10.40
2012,10,16,09,47,10.40
2012,10,16,09,48,10.40
2012,10,16,09,49,10.50
2012,10,16,09,50,10.60
2012,10,16,09,51,10.60
2012,10,16,09,52,10.60
2012,10,16,09,53,10.60
2012,10,16,09,54,10.60
2012,10,16,09,55,10.60
2012,10,16,09,56,10.70
2012,10,16,09,57,10.70
2012,10,16,09,58,10.70
2012,10,16,09,59,10.70
2012,10,16,10,00,10.70
2012,10,16,10,01,10.70
2012,10,16,10,02,10.70
2012,10,16,10,03,10.70
2012,10,16,10,04,10.80
2012,10,16,10,05,10.80
2012,10,16,10,06,10.80
2012,10,16,10,07,10.90
2012,10,16,10,08,10.90
2012,10,16,10,09,10.90
2012,10,16,10,10,10.90
2012,10,16,10,11,10.90
2012,10,16,10,12,11.00
2012,10,16,10,13,11.10
2012,10,16,10,14,11.10
2012,10,16,10,15,11.10
2012,10,16,10,16,11.10
2012,10,16,10,17,11.10
2012,10,16,10,18,11.10
2012,10,16,10,19,11.10
2012,10,16,10,20,11.00
2012,10,16,10,21,10.90
2012,10,16,10,22,11.00
2012,10,16,10,23,11.10
2012,10,16,10,24,11.10
2012,10,16,10,25,11.10
2012,10,16,10,26,11.10
2012,10,16,10,27,11.10
2012,10,16,10,28,11.10
2012,10,16,10,29,11.10
2012,10,16,10,30,11.10
2012,10,16,10,31,11.10
2012,10,16,10,32,11.10
2012,10,16,10,33,11.10
2012,10,16,10,34,11.10
2012,10,16,10,35,11.10
2012,10,16,10,36,11.10
2012,10,16,10,37,11.20
2012,10,16,10,38,11.20
2012,10,16,10,39,11.20
2012,10,16,10,40,11.20
2012,10,16,10,41,11.30
2012,10,16,10,42,11.30
2012,10,16,10,43,11.30
2012,10,16,10,44,11.40
2012,10,16,10,45,11.40
2012,10,16,10,46,11.40
2012,10,16,10,47,11.40
2012,10,16,10,48,11.50
2012,10,16,10,49,11.60
2012,10,16,10,50,11.60
2012,10,16,10,51,11.70
2012,10,16,10,52,11.80
2012,10,16,10,53,11.80
2012,10,16,10,54,11.80
2012,10,16,10,55,11.80
2012,10,16,10,56,11.90
2012,10,16,10,57,11.80
2012,10,16,10,58,11.80
2012,10,16,10,59,11.90
2012,10,16,11,00,11.80
2012,10,16,11,01,11.80
2012,10,16,11,02,11.80
2012,10,16,11,03,11.80
2012,10,16,11,04,11.80
2012,10,16,11,05,11.70
2012,10,16,11,06,11.60
2012,10,16,11,07,11.60
2012,10,16,11,08,11.60
2012,10,16,11,09,11.60
2012,10,16,11,10,11.60
2012,10,16,11,11,11.60
2012,10,16,11,12,11.60
2012,10,16,11,13,11.60
2012,10,16,11,14,11.50
2012,10,16,11,15,11.50
2012,10,16,11,16,11.60
2012,10,16,11,17,11.60
2012,10,16,11,18,11.60
2012,10,16,11,19,11.70
2012,10,16,11,20,11.70
2012,10,16,11,21,11.80
2012,10,16,11,22,11.90
2012,10,16,11,23,12.00
2012,10,16,11,24,12.10
2012,10,16,11,25,12.10
2012,10,16,11,26,12.20
2012,10,16,11,27,12.30
2012,10,16,11,28,12.30
2012,10,16,11,29,12.30
2012,10,16,11,30,12.30
2012,10,16,11,31,12.30
2012,10,16,11,32,12.30
2012,10,16,11,33,12.30
2012,10,16,11,34,12.20
2012,10,16,11,35,12.20
2012,10,16,11,36,12.20
2012,10,16,11,37,12.10
2012,10,16,11,38,12.00
2012,10,16,11,39,11.80
2012,10,16,11,40,11.80
2012,10,16,11,41,11.60
2012,10,16,11,42,11.40
2012,10,16,11,43,11.20
2012,10,16,11,44,11.00
2012,10,16,11,45,10.80
2012,10,16,11,46,10.70
2012,10,16,11,47,10.50
2012,10,16,11,48,10.30
2012,10,16,11,49,10.10
2012,10,16,11,50,10.00
2012,10,16,11,51,9.90
2012,10,16,11,52,9.80
2012,10,16,11,53,9.70
2012,10,16,11,54,9.60
2012,10,16,11,55,9.60
2012,10,16,11,56,9.50
2012,10,16,11,57,9.50
2012,10,16,11,58,9.40
2012,10,16,11,59,9.40
2012,10,16,12,00,9.40
2012,10,16,12,01,9.40
2012,10,16,12,02,9.40
2012,10,16,12,03,9.40
2012,10,16,12,04,9.40
2012,10,16,12,05,9.40
2012,10,16,12,06,9.40
2012,10,16,12,07,9.40
2012,10,16,12,08,9.40
2012,10,16,12,09,9.40
2012,10,16,12,10,9.40
2012,10,16,12,11,9.50
2012,10,16,12,12,9.50
2012,10,16,12,13,9.60
2012,10,16,12,14,9.60
2012,10,16,12,15,9.60
2012,10,16,12,16,9.60
2012,10,16,12,17,9.60
2012,10,16,12,18,9.60
2012,10,16,12,19,9.70
2012,10,16,12,20,9.80
2012,10,16,12,21,9.80
2012,10,16,12,22,9.90
2012,10,16,12,23,9.90
2012,10,16,12,24,10.00
2012,10,16,12,25,10.10
2012,10,16,12,26,10.10
2012,10,16,12,27,10.10
2012,10,16,12,28,10.20
2012,10,16,12,29,10.20
2012,10,16,12,30,10.20
2012,10,16,12,31,10.20
2012,10,16,12,32,10.20
2012,10,16,12,33,10.20
2012,10,16,12,34,10.20
2012,10,16,12,35,10.20
2012,10,16,12,36,10.20
2012,10,16,12,37,10.30
2012,10,16,12,38,10.40
2012,10,16,12,39,10.40
2012,10,16,12,40,10.40
2012,10,16,12,41,10.60
2012,10,16,12,42,10.60
2012,10,16,12,43,10.80
2012,10,16,12,44,10.90
2012,10,16,12,45,10.90
2012,10,16,12,46,10.90
2012,10,16,12,47,11.00
2012,10,16,12,48,11.10
2012,10,16,12,49,11.10
2012,10,16,12,50,11.00
2012,10,16,12,51,10.90
2012,10,16,12,52,10.90
2012,10,16,12,53,10.90
2012,10,16,12,54,10.90
2012,10,16,12,55,10.80
2012,10,16,12,56,10.70
2012,10,16,12,57,10.60
2012,10,16,12,58,10.50
2012,10,16,12,59,10.30
2012,10,16,13,00,10.20
2012,10,16,13,01,10.10
2012,10,16,13,02,10.00
2012,10,16,13,03,9.90
2012,10,16,13,04,9.90
2012,10,16,13,05,9.80
2012,10,16,13,06,9.70
2012,10,16,13,07,9.70
2012,10,16,13,08,9.70
2012,10,16,13,09,9.70
2012,10,16,13,10,9.70
2012,10,16,13,11,9.70
2012,10,16,13,12,9.70
2012,10,16,13,13,9.70
2012,10,16,13,14,9.70
2012,10,16,13,15,9.60
2012,10,16,13,16,9.60
2012,10,16,13,17,9.60
2012,10,16,13,18,9.60
2012,10,16,13,19,9.60
2012,10,16,13,20,9.60
2012,10,16,13,21,9.70
2012,10,16,13,22,9.70
2012,10,16,13,23,9.80
2012,10,16,13,24,9.90
2012,10,16,13,25,10.10
2012,10,16,13,26,10.20
2012,10,16,13,27,10.20
2012,10,16,13,28,10.30
2012,10,16,13,29,10.40
2012,10,16,13,30,10.40
2012,10,16,13,31,10.40
2012,10,16,13,32,10.50
2012,10,16,13,33,10.60
2012,10,16,13,34,10.60
2012,10,16,13,35,10.60
2012,10,16,13,36,10.70
2012,10,16,13,37,10.70
2012,10,16,13,38,10.80
2012,10,16,13,39,10.90
2012,10,16,13,40,10.90
2012,10,16,13,41,11.00
2012,10,16,13,42,11.10
2012,10,16,13,43,11.10
2012,10,16,13,44,11.10
2012,10,16,13,45,11.20
2012,10,16,13,46,11.20
2012,10,16,13,47,11.20
2012,10,16,13,48,11.30
2012,10,16,13,49,11.40
2012,10,16,13,50,11.40
2012,10,16,13,51,11.40
2012,10,16,13,52,11.40
2012,10,16,13,53,11.40
2012,10,16,13,54,11.50
2012,10,16,13,55,11.60
2012,10,16,13,56,11.60
2012,10,16,13,57,11.60
2012,10,16,13,58,11.60
2012,10,16,13,59,11.60
2012,10,16,14,00,11.60
2012,10,16,14,01,11.60
2012,10,16,14,02,11.70
2012,10,16,14,03,11.80
2012,10,16,14,04,11.80
2012,10,16,14,05,11.80
2012,10,16,14,06,11.90
2012,10,16,14,07,11.80
2012,10,16,14,08,11.80
2012,10,16,14,09,11.80
2012,10,16,14,10,11.80
2012,10,16,14,11,11.80
2012,10,16,14,12,11.80
2012,10,16,14,13,11.90
2012,10,16,14,14,11.90
2012,10,16,14,15,12.00
2012,10,16,14,16,12.00
2012,10,16,14,17,11.90
2012,10,16,14,18,11.90
2012,10,16,14,19,11.90
2012,10,16,14,20,12.00
2012,10,16,14,21,11.90
2012,10,16,14,22,11.90
2012,10,16,14,23,11.90
2012,10,16,14,24,11.80
2012,10,16,14,25,11.80
2012,10,16,14,26,11.70
2012,10,16,14,27,11.60
2012,10,16,14,28,11.60
2012,10,16,14,29,11.60
2012,10,16,14,30,11.60
2012,10,16,14,31,11.60
2012,10,16,14,32,11.60
2012,10,16,14,33,11.70
2012,10,16,14,34,11.70
2012,10,16,14,35,11.70
2012,10,16,14,36,11.60
2012,10,16,14,37,11.60
2012,10,16,14,38,11.60
2012,10,16,14,39,11.60
2012,10,16,14,40,11.60
2012,10,16,14,41,11.60
2012,10,16,14,42,11.60
2012,10,16,14,43,11.60
2012,10,16,14,44,11.70
2012,10,16,14,45,11.60
2012,10,16,14,46,11.60
2012,10,16,14,47,11.60
2012,10,16,14,48,11.50
2012,10,16,14,49,11.40
2012,10,16,14,50,11.40
2012,10,16,14,51,11.40
2012,10,16,14,52,11.40
2012,10,16,14,53,11.40
2012,10,16,14,54,11.40
2012,10,16,14,55,11.40
2012,10,16,14,56,11.40
2012,10,16,14,57,11.40
2012,10,16,14,58,11.40
2012,10,16,14,59,11.40
2012,10,16,15,00,11.40
2012,10,16,15,01,11.40
2012,10,16,15,02,11.40
2012,10,16,15,03,11.40
2012,10,16,15,04,11.30
2012,10,16,15,05,11.30
2012,10,16,15,06,11.30
2012,10,16,15,07,11.30
2012,10,16,15,08,11.30
2012,10,16,15,09,11.30
2012,10,16,15,10,11.40
2012,10,16,15,11,11.30
2012,10,16,15,12,11.20
2012,10,16,15,13,11.20
2012,10,16,15,14,11.10
2012,10,16,15,15,11.10
2012,10,16,15,16,11.00
2012,10,16,15,17,10.90
2012,10,16,15,18,10.90
2012,10,16,15,19,10.90
2012,10,16,15,20,10.90
2012,10,16,15,21,10.90
2012,10,16,15,22,11.00
2012,10,16,15,23,11.10
2012,10,16,15,24,11.10
2012,10,16,15,25,11.10
2012,10,16,15,26,11.10
2012,10,16,15,27,11.10
2012,10,16,15,28,11.10
2012,10,16,15,29,11.00
2012,10,16,15,30,10.90
2012,10,16,15,31,10.90
2012,10,16,15,32,11.00
2012,10,16,15,33,11.10
2012,10,16,15,34,11.10
2012,10,16,15,35,11.10
2012,10,16,15,36,11.10
2012,10,16,15,37,11.20
2012,10,16,15,38,11.30
2012,10,16,15,39,11.40
2012,10,16,15,40,11.40
2012,10,16,15,41,11.40
2012,10,16,15,42,11.40
2012,10,16,15,43,11.40
2012,10,16,15,44,11.60
2012,10,16,15,45,11.60
2012,10,16,15,46,11.60
2012,10,16,15,47,11.60
2012,10,16,15,48,11.60
2012,10,16,15,49,11.60
2012,10,16,15,50,11.60
2012,10,16,15,51,11.60
2012,10,16,15,52,11.60
2012,10,16,15,53,11.60
2012,10,16,15,54,11.60
2012,10,16,15,55,11.60
2012,10,16,15,56,11.60
2012,10,16,15,57,11.60
2012,10,16,15,58,11.60
2012,10,16,15,59,11.60
2012,10,16,16,00,11.60
2012,10,16,16,01,11.60
2012,10,16,16,02,11.60
2012,10,16,16,03,11.60
2012,10,16,16,04,11.60
2012,10,16,16,05,11.60
2012,10,16,16,06,11.60
2012,10,16,16,07,11.60
2012,10,16,16,08,11.70
2012,10,16,16,09,11.70
2012,10,16,16,10,11.60
2012,10,16,16,11,11.60
2012,10,16,16,12,11.70
2012,10,16,16,13,11.60
2012,10,16,16,14,11.60
2012,10,16,16,15,11.70
2012,10,16,16,16,11.70
2012,10,16,16,17,11.70
2012,10,16,16,18,11.70
2012,10,16,16,19,11.70
2012,10,16,16,20,11.60
2012,10,16,16,21,11.60
2012,10,16,16,22,11.60
2012,10,16,16,23,11.60
2012,10,16,16,24,11.60
2012,10,16,16,25,11.60
2012,10,16,16,26,11.60
2012,10,16,16,27,11.60
2012,10,16,16,28,11.50
2012,10,16,16,29,11.40
2012,10,16,16,30,11.50
2012,10,16,16,31,11.60
2012,10,16,16,32,11.60
2012,10,16,16,33,11.60
2012,10,16,16,34,11.50
2012,10,16,16,35,11.40
2012,10,16,16,36,11.40
2012,10,16,16,37,11.40
2012,10,16,16,38,11.40
2012,10,16,16,39,11.40
2012,10,16,16,40,11.40
2012,10,16,16,41,11.40
2012,10,16,16,42,11.30
2012,10,16,16,43,11.30
2012,10,16,16,44,11.30
2012,10,16,16,45,11.30
2012,10,16,16,46,11.30
2012,10,16,16,47,11.20
2012,10,16,16,48,11.20
2012,10,16,16,49,11.20
2012,10,16,16,50,11.20
2012,10,16,16,51,11.20
2012,10,16,16,52,11.20
2012,10,16,16,53,11.20
2012,10,16,16,54,11.20
2012,10,16,16,55,11.20
2012,10,16,16,56,11.20
2012,10,16,16,57,11.20
2012,10,16,16,58,11.20
2012,10,16,16,59,11.20
2012,10,16,17,00,11.20
2012,10,16,17,01,11.20
2012,10,16,17,02,11.20
2012,10,16,17,03,11.20
2012,10,16,17,04,11.20
2012,10,16,17,05,11.20
2012,10,16,17,06,11.20
2012,10,16,17,07,11.20
2012,10,16,17,08,11.10
2012,10,16,17,09,11.10
2012,10,16,17,10,11.20
2012,10,16,17,11,11.10
2012,10,16,17,12,11.10
2012,10,16,17,13,11.20
2012,10,16,17,14,11.20
2012,10,16,17,15,11.20
2012,10,16,17,16,11.20
2012,10,16,17,17,11.10
2012,10,16,17,18,11.10
2012,10,16,17,19,11.10
2012,10,16,17,20,11.10
2012,10,16,17,21,11.10
2012,10,16,17,22,11.10
2012,10,16,17,23,11.10
2012,10,16,17,24,11.10
2012,10,16,17,25,11.10
2012,10,16,17,26,11.10
2012,10,16,17,27,11.10
2012,10,16,17,28,11.10
2012,10,16,17,29,11.10
2012,10,16,17,30,11.10
2012,10,16,17,31,11.10
2012,10,16,17,32,11.10
2012,10,16,17,33,11.10
2012,10,16,17,34,11.10
2012,10,16,17,35,11.10
2012,10,16,17,36,11.10
2012,10,16,17,37,11.10
2012,10,16,17,38,11.10
2012,10,16,17,39,11.10
2012,10,16,17,40,10.90
2012,10,16,17,41,10.90
2012,10,16,17,42,10.90
2012,10,16,17,43,10.90
2012,10,16,17,44,10.90
2012,10,16,17,45,10.90
2012,10,16,17,46,10.90
2012,10,16,17,47,10.90
2012,10,16,17,48,10.90
2012,10,16,17,49,10.90
2012,10,16,17,50,10.90
2012,10,16,17,51,10.90
2012,10,16,17,52,10.90
2012,10,16,17,53,10.80
2012,10,16,17,54,10.80
2012,10,16,17,55,10.80
2012,10,16,17,56,10.80
2012,10,16,17,57,10.70
2012,10,16,17,58,10.70
2012,10,16,17,59,10.70
2012,10,16,18,00,10.60
2012,10,16,18,01,10.60
2012,10,16,18,02,10.60
2012,10,16,18,03,10.60
2012,10,16,18,04,10.60
2012,10,16,18,05,10.60
2012,10,16,18,06,10.60
2012,10,16,18,07,10.50
2012,10,16,18,08,10.40
2012,10,16,18,09,10.40
2012,10,16,18,10,10.40
2012,10,16,18,11,10.40
2012,10,16,18,12,10.40
2012,10,16,18,13,10.40
2012,10,16,18,14,10.40
2012,10,16,18,15,10.30
2012,10,16,18,16,10.30
2012,10,16,18,17,10.30
2012,10,16,18,18,10.30
2012,10,16,18,19,10.20
2012,10,16,18,20,10.20
2012,10,16,18,21,10.20
2012,10,16,18,22,10.20
2012,10,16,18,23,10.20
2012,10,16,18,24,10.10
2012,10,16,18,25,10.10
2012,10,16,18,26,10.10
2012,10,16,18,27,10.10
2012,10,16,18,28,10.10
2012,10,16,18,29,10.10
2012,10,16,18,30,10.10
2012,10,16,18,31,10.10
2012,10,16,18,32,10.10
2012,10,16,18,33,10.10
2012,10,16,18,34,10.10
2012,10,16,18,35,10.10
2012,10,16,18,36,10.10
2012,10,16,18,37,10.10
2012,10,16,18,38,10.10
2012,10,16,18,39,10.10
2012,10,16,18,40,10.10
2012,10,16,18,41,10.10
2012,10,16,18,42,10.10
2012,10,16,18,43,10.10
2012,10,16,18,44,10.10
2012,10,16,18,45,10.10
2012,10,16,18,46,10.10
2012,10,16,18,47,10.10
2012,10,16,18,48,10.10
2012,10,16,18,49,10.10
2012,10,16,18,50,10.10
2012,10,16,18,51,10.10
2012,10,16,18,52,10.10
2012,10,16,18,53,10.10
2012,10,16,18,54,10.20
2012,10,16,18,55,10.20
2012,10,16,18,56,10.20
2012,10,16,18,57,10.20
2012,10,16,18,58,10.20
2012,10,16,18,59,10.20
2012,10,16,19,00,10.20
2012,10,16,19,01,10.20
2012,10,16,19,02,10.30
2012,10,16,19,03,10.30
2012,10,16,19,04,10.30
2012,10,16,19,05,10.30
2012,10,16,19,06,10.30
2012,10,16,19,07,10.40
2012,10,16,19,08,10.40
2012,10,16,19,09,10.40
2012,10,16,19,10,10.40
2012,10,16,19,11,10.40
2012,10,16,19,12,10.40
2012,10,16,19,13,10.40
2012,10,16,19,14,10.40
2012,10,16,19,15,10.50
2012,10,16,19,16,10.60
2012,10,16,19,17,10.60
2012,10,16,19,18,10.60
2012,10,16,19,19,10.60
2012,10,16,19,20,10.60
2012,10,16,19,21,10.60
2012,10,16,19,22,10.60
2012,10,16,19,23,10.60
2012,10,16,19,24,10.60
2012,10,16,19,25,10.60
2012,10,16,19,26,10.60
2012,10,16,19,27,10.60
2012,10,16,19,28,10.60
2012,10,16,19,29,10.60
2012,10,16,19,30,10.60
2012,10,16,19,31,10.60
2012,10,16,19,32,10.60
2012,10,16,19,33,10.60
2012,10,16,19,34,10.60
2012,10,16,19,35,10.60
2012,10,16,19,36,10.60
2012,10,16,19,37,10.60
2012,10,16,19,38,10.60
2012,10,16,19,39,10.50
2012,10,16,19,40,10.40
2012,10,16,19,41,10.40
2012,10,16,19,42,10.40
2012,10,16,19,43,10.40
2012,10,16,19,44,10.40
2012,10,16,19,45,10.40
2012,10,16,19,46,10.40
2012,10,16,19,47,10.40
2012,10,16,19,48,10.40
2012,10,16,19,49,10.40
2012,10,16,19,50,10.40
2012,10,16,19,51,10.40
2012,10,16,19,52,10.40
2012,10,16,19,53,10.40
2012,10,16,19,54,10.40
2012,10,16,19,55,10.40
2012,10,16,19,56,10.40
2012,10,16,19,57,10.40
2012,10,16,19,58,10.40
2012,10,16,19,59,10.40
2012,10,16,20,00,10.40
2012,10,16,20,01,10.30
2012,10,16,20,02,10.30
2012,10,16,20,03,10.30
2012,10,16,20,04,10.30
2012,10,16,20,05,10.30
2012,10,16,20,06,10.30
2012,10,16,20,07,10.30
2012,10,16,20,08,10.30
2012,10,16,20,09,10.30
2012,10,16,20,10,10.30
2012,10,16,20,11,10.30
2012,10,16,20,12,10.20
2012,10,16,20,13,10.20
2012,10,16,20,14,10.20
2012,10,16,20,15,10.20
2012,10,16,20,16,10.20
2012,10,16,20,17,10.20
2012,10,16,20,18,10.20
2012,10,16,20,19,10.20
2012,10,16,20,20,10.20
2012,10,16,20,21,10.20
2012,10,16,20,22,10.20
2012,10,16,20,23,10.20
2012,10,16,20,24,10.20
2012,10,16,20,25,10.20
2012,10,16,20,26,10.20
2012,10,16,20,27,10.20
2012,10,16,20,28,10.20
2012,10,16,20,29,10.20
2012,10,16,20,30,10.20
2012,10,16,20,31,10.20
2012,10,16,20,32,10.20
2012,10,16,20,33,10.20
2012,10,16,20,34,10.10
2012,10,16,20,35,10.10
2012,10,16,20,36,10.10
2012,10,16,20,37,10.10
2012,10,16,20,38,10.10
2012,10,16,20,39,10.10
2012,10,16,20,40,10.10
2012,10,16,20,41,10.10
2012,10,16,20,42,10.10
2012,10,16,20,43,10.10
2012,10,16,20,44,10.00
2012,10,16,20,45,9.90
2012,10,16,20,46,9.90
2012,10,16,20,47,9.90
2012,10,16,20,48,9.90
2012,10,16,20,49,9.90
2012,10,16,20,50,9.90
2012,10,16,20,51,9.90
2012,10,16,20,52,9.90
2012,10,16,20,53,9.90
2012,10,16,20,54,9.90
2012,10,16,20,55,9.90
2012,10,16,20,56,9.90
2012,10,16,20,57,9.90
2012,10,16,20,58,9.90
2012,10,16,20,59,9.90
2012,10,16,21,00,9.90
2012,10,16,21,01,9.90
2012,10,16,21,02,9.90
2012,10,16,21,03,9.90
2012,10,16,21,04,9.90
2012,10,16,21,05,9.90
2012,10,16,21,06,9.90
2012,10,16,21,07,9.90
2012,10,16,21,08,9.90
2012,10,16,21,09,9.90
2012,10,16,21,10,9.90
2012,10,16,21,11,9.90
2012,10,16,21,12,9.90
2012,10,16,21,13,9.90
2012,10,16,21,14,9.90
2012,10,16,21,15,9.90
2012,10,16,21,16,9.90
2012,10,16,21,17,9.90
2012,10,16,21,18,9.90
2012,10,16,21,19,9.90
2012,10,16,21,20,9.90
2012,10,16,21,21,10.00
2012,10,16,21,22,10.10
2012,10,16,21,23,10.10
2012,10,16,21,24,10.10
2012,10,16,21,25,10.10
2012,10,16,21,26,10.10
2012,10,16,21,27,10.10
2012,10,16,21,28,10.10
2012,10,16,21,29,10.10
2012,10,16,21,30,10.10
2012,10,16,21,31,10.10
2012,10,16,21,32,10.10
2012,10,16,21,33,10.10
2012,10,16,21,34,10.10
2012,10,16,21,35,10.10
2012,10,16,21,36,10.00
2012,10,16,21,37,9.90
2012,10,16,21,38,9.90
2012,10,16,21,39,9.90
2012,10,16,21,40,9.90
2012,10,16,21,41,9.90
2012,10,16,21,42,9.90
2012,10,16,21,43,9.90
2012,10,16,21,44,9.90
2012,10,16,21,45,9.80
2012,10,16,21,46,9.80
2012,10,16,21,47,9.80
2012,10,16,21,48,9.80
2012,10,16,21,49,9.70
2012,10,16,21,50,9.70
2012,10,16,21,51,9.70
2012,10,16,21,52,9.70
2012,10,16,21,53,9.70
2012,10,16,21,54,9.60
2012,10,16,21,55,9.60
2012,10,16,21,56,9.60
2012,10,16,21,57,9.60
2012,10,16,21,58,9.60
2012,10,16,21,59,9.50
2012,10,16,22,00,9.50
2012,10,16,22,01,9.50
2012,10,16,22,02,9.50
2012,10,16,22,03,9.40
2012,10,16,22,04,9.40
2012,10,16,22,05,9.40
2012,10,16,22,06,9.40
2012,10,16,22,07,9.40
2012,10,16,22,08,9.40
2012,10,16,22,09,9.30
2012,10,16,22,10,9.30
2012,10,16,22,11,9.30
2012,10,16,22,12,9.20
2012,10,16,22,13,9.20
2012,10,16,22,14,9.20
2012,10,16,22,15,9.20
2012,10,16,22,16,9.20
2012,10,16,22,17,9.20
2012,10,16,22,18,9.20
2012,10,16,22,19,9.20
2012,10,16,22,20,9.10
2012,10,16,22,21,9.10
2012,10,16,22,22,9.10
2012,10,16,22,23,9.10
2012,10,16,22,24,9.00
2012,10,16,22,25,9.00
2012,10,16,22,26,9.00
2012,10,16,22,27,8.90
2012,10,16,22,28,8.90
2012,10,16,22,29,8.90
2012,10,16,22,30,8.90
2012,10,16,22,31,8.90
2012,10,16,22,32,8.90
2012,10,16,22,33,8.80
2012,10,16,22,34,8.80
2012,10,16,22,35,8.80
2012,10,16,22,36,8.80
2012,10,16,22,37,8.80
2012,10,16,22,38,8.80
2012,10,16,22,39,8.80
2012,10,16,22,40,8.80
2012,10,16,22,41,8.80
2012,10,16,22,42,8.80
2012,10,16,22,43,8.80
2012,10,16,22,44,8.80
2012,10,16,22,45,8.80
2012,10,16,22,46,8.80
2012,10,16,22,47,8.80
2012,10,16,22,48,8.80
2012,10,16,22,49,8.80
2012,10,16,22,50,8.80
2012,10,16,22,51,8.90
2012,10,16,22,52,8.90
2012,10,16,22,53,8.90
2012,10,16,22,54,8.90
2012,10,16,22,55,8.90
2012,10,16,22,56,8.90
2012,10,16,22,57,8.90
2012,10,16,22,58,8.90
2012,10,16,22,59,8.90
2012,10,16,23,00,8.80
2012,10,16,23,01,8.80
2012,10,16,23,02,8.80
2012,10,16,23,03,8.90
2012,10,16,23,04,8.90
2012,10,16,23,05,8.90
2012,10,16,23,06,8.90
2012,10,16,23,07,8.80
2012,10,16,23,08,8.80
2012,10,16,23,09,8.80
2012,10,16,23,10,8.80
2012,10,16,23,11,8.80
2012,10,16,23,12,8.80
2012,10,16,23,13,8.80
2012,10,16,23,14,8.70
2012,10,16,23,15,8.70
2012,10,16,23,16,8.70
2012,10,16,23,17,8.70
2012,10,16,23,18,8.70
2012,10,16,23,19,8.70
2012,10,16,23,20,8.70
2012,10,16,23,21,8.70
2012,10,16,23,22,8.70
2012,10,16,23,23,8.70
2012,10,16,23,24,8.70
2012,10,16,23,25,8.70
2012,10,16,23,26,8.70
2012,10,16,23,27,8.70
2012,10,16,23,28,8.70
2012,10,16,23,29,8.70
2012,10,16,23,30,8.70
2012,10,16,23,31,8.70
2012,10,16,23,32,8.70
2012,10,16,23,33,8.70
2012,10,16,23,34,8.70
2012,10,16,23,35,8.70
2012,10,16,23,36,8.70
2012,10,16,23,37,8.70
2012,10,16,23,38,8.70
2012,10,16,23,39,8.70
2012,10,16,23,40,8.70
2012,10,16,23,41,8.60
2012,10,16,23,42,8.70
2012,10,16,23,43,8.70
2012,10,16,23,44,8.70
2012,10,16,23,45,8.70
2012,10,16,23,46,8.70
2012,10,16,23,47,8.70
2012,10,16,23,48,8.70
2012,10,16,23,49,8.70
2012,10,16,23,50,8.70
2012,10,16,23,51,8.70
2012,10,16,23,52,8.60
2012,10,16,23,53,8.60
2012,10,16,23,54,8.60
2012,10,16,23,55,8.60
2012,10,16,23,56,8.60
2012,10,16,23,57,8.60
2012,10,16,23,58,8.60
2012,10,16,23,59,8.60
